Time,TemperatureF,DewpointF,PressureIn,WindDirection,WindDirectionDegrees,WindSpeedMPH,WindSpeedGustMPH,Humidity,HourlyPrecipIn,Conditions,Clouds,dailyrainin,SolarRadiationWatts/m^2,SoftwareType,DateUTC
2013-03-16 00:02:00,31.2,20.0,29.87,WNW,296,8.0,-999.0,63,-99.99,,,0.01,0,weatherlink.com 1.10,2013-03-16 04:02:00,
2013-03-16 00:17:00,31.2,20.0,29.87,NNW,346,11.0,-999.0,64,-99.99,,,0.01,0,weatherlink.com 1.10,2013-03-16 04:17:00,
2013-03-16 00:32:00,31.0,20.0,29.88,WNW,292,8.0,-999.0,65,-99.99,,,0.01,0,weatherlink.com 1.10,2013-03-16 04:32:00,
2013-03-16 00:47:00,30.8,20.0,29.88,WNW,296,8.0,-999.0,65,-99.99,,,0.00,0,weatherlink.com 1.10,2013-03-16 04:47:00,
2013-03-16 01:03:00,30.6,20.0,29.89,NW,308,13.0,-999.0,65,-99.99,,,0.00,0,weatherlink.com 1.10,2013-03-16 05:03:00,
2013-03-16 01:18:00,30.5,20.0,29.88,NW,306,8.0,-999.0,66,-99.99,,,0.00,0,weatherlink.com 1.10,2013-03-16 05:18:00,
2013-03-16 01:33:00,30.2,20.0,29.88,WNW,292,6.0,-999.0,66,-99.99,,,0.00,0,weatherlink.com 1.10,2013-03-16 05:33:00,
2013-03-16 01:48:00,30.1,20.0,29.89,West,267,5.0,-999.0,67,-99.99,,,0.00,0,weatherlink.com 1.10,2013-03-16 05:48:00,
2013-03-16 02:03:00,30.1,20.0,29.89,West,265,5.0,-999.0,67,-99.99,,,0.00,0,weatherlink.com 1.10,2013-03-16 06:03:00,
2013-03-16 02:18:00,29.9,20.0,29.89,West,279,4.0,-999.0,68,-99.99,,,0.00,0,weatherlink.com 1.10,2013-03-16 06:18:00,
2013-03-16 02:33:00,29.7,20.0,29.89,NW,314,6.0,-999.0,68,-99.99,,,0.00,0,weatherlink.com 1.10,2013-03-16 06:33:00,
2013-03-16 02:48:00,29.6,19.0,29.89,NNW,327,8.0,-999.0,66,-99.99,,,0.00,0,weatherlink.com 1.10,2013-03-16 06:48:00,
2013-03-16 03:03:00,29.5,19.0,29.89,NW,307,1.0,-999.0,64,-99.99,,,0.00,0,weatherlink.com 1.10,2013-03-16 07:03:00,
2013-03-16 03:18:00,29.3,18.0,29.89,NW,316,4.0,-999.0,63,-99.99,,,0.00,0,weatherlink.com 1.10,2013-03-16 07:18:00,
2013-03-16 03:33:00,29.1,17.0,29.88,WNW,302,6.0,-999.0,62,-99.99,,,0.00,0,weatherlink.com 1.10,2013-03-16 07:33:00,
2013-03-16 03:48:00,28.8,17.0,29.88,NNW,342,11.0,-999.0,62,-99.99,,,0.00,0,weatherlink.com 1.10,2013-03-16 07:48:00,
2013-03-16 04:03:00,28.3,16.0,29.87,NNW,348,3.0,-999.0,61,-99.99,,,0.00,0,weatherlink.com 1.10,2013-03-16 08:03:00,
2013-03-16 04:18:00,27.9,16.0,29.86,NNW,338,5.0,-999.0,61,-99.99,,,0.00,0,weatherlink.com 1.10,2013-03-16 08:18:00,
2013-03-16 04:33:00,27.6,16.0,29.86,NNW,335,3.0,-999.0,62,-99.99,,,0.00,0,weatherlink.com 1.10,2013-03-16 08:33:00,
2013-03-16 04:48:00,27.4,16.0,29.86,NNW,335,2.0,-999.0,62,-99.99,,,0.00,0,weatherlink.com 1.10,2013-03-16 08:48:00,
2013-03-16 05:03:00,27.2,16.0,29.86,NNW,334,4.0,-999.0,63,-99.99,,,0.00,0,weatherlink.com 1.10,2013-03-16 09:03:00,
2013-03-16 05:18:00,27.0,16.0,29.86,NNW,334,1.0,-999.0,63,-99.99,,,0.00,0,weatherlink.com 1.10,2013-03-16 09:18:00,
2013-03-16 05:33:00,26.7,16.0,29.86,NNW,344,4.0,-999.0,65,-99.99,,,0.00,0,weatherlink.com 1.10,2013-03-16 09:33:00,
2013-03-16 05:48:00,26.6,17.0,29.86,North,5,5.0,-999.0,67,-99.99,,,0.00,0,weatherlink.com 1.10,2013-03-16 09:48:00,
2013-03-16 06:03:00,26.5,16.0,29.87,North,355,5.0,-999.0,66,-99.99,,,0.00,0,weatherlink.com 1.10,2013-03-16 10:03:00,
2013-03-16 06:18:00,26.5,17.0,29.87,NNW,346,5.0,-999.0,67,-99.99,,,0.00,0,weatherlink.com 1.10,2013-03-16 10:18:00,
2013-03-16 06:33:00,26.4,16.0,29.88,NNW,338,2.0,-999.0,66,-99.99,,,0.00,0,weatherlink.com 1.10,2013-03-16 10:33:00,
2013-03-16 06:48:00,26.4,17.0,29.88,NNW,348,3.0,-999.0,67,-99.99,,,0.00,0,weatherlink.com 1.10,2013-03-16 10:48:00,
2013-03-16 07:03:00,26.3,17.0,29.88,NNW,336,4.0,-999.0,69,-99.99,,,0.00,0,weatherlink.com 1.10,2013-03-16 11:03:00,
2013-03-16 07:18:00,26.2,18.0,29.88,NNW,342,7.0,-999.0,70,-99.99,,,0.00,0,weatherlink.com 1.10,2013-03-16 11:18:00,
2013-03-16 07:33:00,26.2,18.0,29.88,NNW,339,5.0,-999.0,71,-99.99,,,0.00,9,weatherlink.com 1.10,2013-03-16 11:33:00,
2013-03-16 07:48:00,26.1,18.0,29.88,North,5,9.0,-999.0,72,-99.99,,,0.00,12,weatherlink.com 1.10,2013-03-16 11:48:00,
2013-03-16 08:03:00,25.9,18.0,29.88,North,5,0.0,-999.0,72,-99.99,,,0.00,32,weatherlink.com 1.10,2013-03-16 12:03:00,
2013-03-16 08:18:00,25.9,18.0,29.88,NE,53,6.0,-999.0,71,-99.99,,,0.00,53,weatherlink.com 1.10,2013-03-16 12:18:00,
2013-03-16 08:33:00,25.6,17.0,29.88,NE,55,6.0,-999.0,70,-99.99,,,0.00,72,weatherlink.com 1.10,2013-03-16 12:33:00,
2013-03-16 08:48:00,25.4,17.0,29.88,NE,34,6.0,-999.0,70,-99.99,,,0.00,123,weatherlink.com 1.10,2013-03-16 12:48:00,
2013-03-16 09:04:00,25.4,17.0,29.88,NE,50,2.0,-999.0,70,-99.99,,,0.00,125,weatherlink.com 1.10,2013-03-16 13:04:00,
2013-03-16 09:19:00,25.8,17.0,29.88,NE,42,6.0,-999.0,70,-99.99,,,0.00,158,weatherlink.com 1.10,2013-03-16 13:19:00,
2013-03-16 09:34:00,26.1,17.0,29.88,East,85,7.0,-999.0,69,-99.99,,,0.00,348,weatherlink.com 1.10,2013-03-16 13:34:00,
2013-03-16 09:49:00,26.2,16.0,29.88,ENE,76,6.0,-999.0,66,-99.99,,,0.00,330,weatherlink.com 1.10,2013-03-16 13:49:00,
2013-03-16 10:04:00,26.7,16.0,29.87,East,94,6.0,-999.0,65,-99.99,,,0.00,318,weatherlink.com 1.10,2013-03-16 14:04:00,
2013-03-16 10:19:00,27.0,17.0,29.87,ENE,73,1.0,-999.0,65,-99.99,,,0.00,183,weatherlink.com 1.10,2013-03-16 14:19:00,
2013-03-16 10:34:00,26.3,16.0,29.87,ENE,71,5.0,-999.0,65,-99.99,,,0.00,267,weatherlink.com 1.10,2013-03-16 14:34:00,
2013-03-16 10:49:00,26.8,16.0,29.87,East,82,3.0,-999.0,65,-99.99,,,0.00,206,weatherlink.com 1.10,2013-03-16 14:49:00,
2013-03-16 11:04:00,27.0,16.0,29.87,East,80,2.0,-999.0,64,-99.99,,,0.00,271,weatherlink.com 1.10,2013-03-16 15:04:00,
2013-03-16 11:19:00,27.5,17.0,29.87,North,360,2.0,-999.0,64,-99.99,,,0.00,448,weatherlink.com 1.10,2013-03-16 15:19:00,
2013-03-16 11:34:00,27.2,17.0,29.87,ENE,62,4.0,-999.0,65,-99.99,,,0.00,260,weatherlink.com 1.10,2013-03-16 15:34:00,
2013-03-16 11:49:00,27.0,17.0,29.87,ENE,63,4.0,-999.0,65,-99.99,,,0.00,243,weatherlink.com 1.10,2013-03-16 15:49:00,
2013-03-16 12:04:00,27.1,17.0,29.86,NNE,28,4.0,-999.0,65,-99.99,,,0.00,218,weatherlink.com 1.10,2013-03-16 16:04:00,
2013-03-16 12:19:00,27.1,17.0,29.87,ENE,71,4.0,-999.0,65,-99.99,,,0.00,353,weatherlink.com 1.10,2013-03-16 16:19:00,
2013-03-16 12:34:00,26.6,17.0,29.87,NE,53,3.0,-999.0,66,-99.99,,,0.00,264,weatherlink.com 1.10,2013-03-16 16:34:00,
2013-03-16 12:49:00,26.9,17.0,29.87,NNE,13,4.0,-999.0,67,-99.99,,,0.00,260,weatherlink.com 1.10,2013-03-16 16:49:00,
2013-03-16 13:04:00,27.3,17.0,29.87,NNW,344,5.0,-999.0,65,-99.99,,,0.00,397,weatherlink.com 1.10,2013-03-16 17:04:00,
2013-03-16 13:19:00,28.4,18.0,29.87,NNW,341,5.0,-999.0,64,-99.99,,,0.00,482,weatherlink.com 1.10,2013-03-16 17:19:00,
2013-03-16 13:34:00,28.3,17.0,29.86,East,90,4.0,-999.0,62,-99.99,,,0.00,295,weatherlink.com 1.10,2013-03-16 17:34:00,
2013-03-16 13:49:00,27.9,17.0,29.86,North,10,5.0,-999.0,64,-99.99,,,0.00,322,weatherlink.com 1.10,2013-03-16 17:49:00,
2013-03-16 14:04:00,27.8,18.0,29.86,North,5,5.0,-999.0,68,-99.99,,,0.00,369,weatherlink.com 1.10,2013-03-16 18:04:00,
2013-03-16 14:19:00,27.5,19.0,29.86,NNE,21,6.0,-999.0,71,-99.99,,,0.00,301,weatherlink.com 1.10,2013-03-16 18:19:00,
2013-03-16 14:34:00,27.1,20.0,29.86,NNE,19,5.0,-999.0,73,-99.99,,,0.00,320,weatherlink.com 1.10,2013-03-16 18:34:00,
2013-03-16 14:49:00,27.0,19.0,29.86,NNW,339,6.0,-999.0,72,-99.99,,,0.00,162,weatherlink.com 1.10,2013-03-16 18:49:00,
2013-03-16 15:04:00,26.7,19.0,29.86,North,9,2.0,-999.0,73,-99.99,,,0.00,176,weatherlink.com 1.10,2013-03-16 19:04:00,
2013-03-16 15:19:00,26.3,19.0,29.86,NNW,346,8.0,-999.0,73,-99.99,,,0.00,216,weatherlink.com 1.10,2013-03-16 19:19:00,
2013-03-16 15:34:00,26.3,20.0,29.86,NNW,335,2.0,-999.0,76,-99.99,,,0.00,202,weatherlink.com 1.10,2013-03-16 19:34:00,
2013-03-16 15:49:00,26.1,20.0,29.86,North,355,8.0,-999.0,79,-99.99,,,0.00,200,weatherlink.com 1.10,2013-03-16 19:49:00,
2013-03-16 16:04:00,26.1,20.0,29.86,NW,312,7.0,-999.0,79,-99.99,,,0.00,142,weatherlink.com 1.10,2013-03-16 20:04:00,
2013-03-16 16:19:00,25.7,20.0,29.86,NW,316,6.0,-999.0,78,-99.99,,,0.00,142,weatherlink.com 1.10,2013-03-16 20:19:00,
2013-03-16 16:34:00,25.4,19.0,29.87,North,5,7.0,-999.0,78,-99.99,,,0.00,148,weatherlink.com 1.10,2013-03-16 20:34:00,
2013-03-16 16:49:00,25.1,19.0,29.88,NNW,331,1.0,-999.0,78,-99.99,,,0.00,148,weatherlink.com 1.10,2013-03-16 20:49:00,
2013-03-16 17:04:00,25.2,19.0,29.88,NW,313,9.0,-999.0,77,-99.99,,,0.00,134,weatherlink.com 1.10,2013-03-16 21:04:00,
2013-03-16 17:19:00,24.8,18.0,29.88,NW,313,12.0,-999.0,75,-99.99,,,0.00,105,weatherlink.com 1.10,2013-03-16 21:19:00,
2013-03-16 17:34:00,24.7,18.0,29.89,NW,318,6.0,-999.0,75,-99.99,,,0.00,90,weatherlink.com 1.10,2013-03-16 21:34:00,
2013-03-16 17:49:00,24.5,17.0,29.89,NE,49,5.0,-999.0,74,-99.99,,,0.00,76,weatherlink.com 1.10,2013-03-16 21:49:00,
2013-03-16 18:04:00,24.6,17.0,29.89,NW,305,5.0,-999.0,74,-99.99,,,0.00,69,weatherlink.com 1.10,2013-03-16 22:04:00,
2013-03-16 18:19:00,24.6,17.0,29.90,North,351,4.0,-999.0,73,-99.99,,,0.00,69,weatherlink.com 1.10,2013-03-16 22:19:00,
2013-03-16 18:34:00,24.5,17.0,29.90,North,355,4.0,-999.0,72,-99.99,,,0.00,63,weatherlink.com 1.10,2013-03-16 22:34:00,
2013-03-16 18:49:00,24.4,16.0,29.91,NW,323,5.0,-999.0,71,-99.99,,,0.00,25,weatherlink.com 1.10,2013-03-16 22:49:00,
2013-03-16 19:04:00,24.1,16.0,29.91,NW,323,0.0,-999.0,71,-99.99,,,0.00,12,weatherlink.com 1.10,2013-03-16 23:04:00,
2013-03-16 19:19:00,23.9,16.0,29.92,NW,323,5.0,-999.0,71,-99.99,,,0.00,0,weatherlink.com 1.10,2013-03-16 23:19:00,
2013-03-16 19:34:00,23.6,15.0,29.92,NW,326,6.0,-999.0,71,-99.99,,,0.00,0,weatherlink.com 1.10,2013-03-16 23:34:00,
2013-03-16 19:49:00,23.5,16.0,29.93,NW,326,2.0,-999.0,72,-99.99,,,0.00,0,weatherlink.com 1.10,2013-03-16 23:49:00,
2013-03-16 20:04:00,23.3,16.0,29.94,NW,325,0.0,-999.0,72,-99.99,,,0.00,0,weatherlink.com 1.10,2013-03-17 00:04:00,
2013-03-16 20:19:00,23.2,15.0,29.95,NW,325,0.0,-999.0,72,-99.99,,,0.00,0,weatherlink.com 1.10,2013-03-17 00:19:00,
2013-03-16 20:34:00,22.8,15.0,29.95,NW,326,0.0,-999.0,72,-99.99,,,0.00,0,weatherlink.com 1.10,2013-03-17 00:34:00,
2013-03-16 20:49:00,22.4,15.0,29.96,NW,325,0.0,-999.0,73,-99.99,,,0.00,0,weatherlink.com 1.10,2013-03-17 00:49:00,
2013-03-16 21:04:00,21.9,15.0,29.96,NW,325,0.0,-999.0,74,-99.99,,,0.00,0,weatherlink.com 1.10,2013-03-17 01:04:00,
2013-03-16 21:19:00,21.5,14.0,29.96,NW,325,0.0,-999.0,74,-99.99,,,0.00,0,weatherlink.com 1.10,2013-03-17 01:19:00,
2013-03-16 21:35:00,21.2,15.0,29.97,NW,325,0.0,-999.0,76,-99.99,,,0.00,0,weatherlink.com 1.10,2013-03-17 01:35:00,
2013-03-16 21:50:00,20.8,15.0,29.98,NW,325,0.0,-999.0,77,-99.99,,,0.00,0,weatherlink.com 1.10,2013-03-17 01:50:00,
2013-03-16 22:05:00,20.5,14.0,29.98,NW,325,0.0,-999.0,77,-99.99,,,0.00,0,weatherlink.com 1.10,2013-03-17 02:05:00,
2013-03-16 22:20:00,20.2,14.0,29.98,NW,325,0.0,-999.0,78,-99.99,,,0.00,0,weatherlink.com 1.10,2013-03-17 02:20:00,
2013-03-16 22:35:00,19.9,14.0,29.97,NW,325,0.0,-999.0,78,-99.99,,,0.00,0,weatherlink.com 1.10,2013-03-17 02:35:00,
2013-03-16 22:50:00,19.7,14.0,29.98,NW,325,0.0,-999.0,79,-99.99,,,0.00,0,weatherlink.com 1.10,2013-03-17 02:50:00,
2013-03-16 23:05:00,19.6,14.0,29.98,NW,325,0.0,-999.0,80,-99.99,,,0.00,0,weatherlink.com 1.10,2013-03-17 03:05:00,
2013-03-16 23:20:00,19.6,15.0,29.99,NW,325,4.0,-999.0,81,-99.99,,,0.00,0,weatherlink.com 1.10,2013-03-17 03:20:00,
2013-03-16 23:35:00,19.7,15.0,29.99,NW,325,0.0,-999.0,81,-99.99,,,0.00,0,weatherlink.com 1.10,2013-03-17 03:35:00,
2013-03-16 23:50:00,19.6,15.0,29.98,NW,325,0.0,-999.0,81,-99.99,,,0.00,0,weatherlink.com 1.10,2013-03-17 03:50:00,